BEIJING 1 1 28890U 05043A 26255.31904100 .00000111 00000+0 30890-4 0 9993 2 28890 98.3034 29.0764 0014991 14.2843 345.8780 14.63575268113399 HUANJING 1A (HJ-1A) 1 33320U 08041A 26255.27722434 .00000372 00000+0 50581-4 0 9999 2 33320 97.6772 237.7988 0017828 208.8496 151.1735 14.84156355971325 HUANJING 1B (HJ-1B) 1 33321U 08041B 26255.28661786 .00000269 00000+0 38739-4 0 9999 2 33321 97.6603 240.7115 0034580 257.5629 102.1715 14.83457707971326 YAOGAN-4 1 33446U 08061A 26254.78521813 .00000647 00000+0 85423-4 0 9991 2 33446 97.9322 187.6686 0014968 143.6866 216.5366 14.83337421958500 DEIMOS-1 1 35681U 09041A 26255.27390792 .00000418 00000+0 68774-4 0 9994 2 35681 97.7516 48.7896 0000264 60.7638 299.3599 14.75312601919728 UK-DMC 2 1 35683U 09041C 26255.26474043 .00000349 00000+0 57745-4 0 9996 2 35683 97.8954 28.1661 0001310 69.7097 290.4254 14.76136974919414 DMC3-FM1 1 40715U 15032A 26255.28401374 -.00000352 00000+0 34642-4 0 9990 2 40715 97.6331 116.9919 0006748 117.0416 243.1490 14.85813302602847 DMC3-FM2 1 40716U 15032B 26255.30565329 .00000158 00000+0 24097-4 0 9991 2 40716 97.6380 118.6446 0007140 122.7373 237.4532 14.85822577602845 DMC3-FM3 1 40717U 15032C 26255.26229050 .00000738 00000+0 90696-4 0 9997 2 40717 97.6429 120.4095 0006376 120.9671 239.2173 14.85813544602847